Back to catalog

FASAT B

AliveScienceSSO
NORAD 25395·PAYLOAD·🇨🇱 Chile

Launched Jul 10, 1998 from Baikonur Cosmodrome

Loading…

Next Passes (next 24 hours)

TLE

FreshSource: Space-Track

Epoch: Sep 14, 2026, 10:07 UTC

1 25395U 98043B   26257.42174673  .00000028  00000-0  30872-4 0  9998
2 25395  98.9799 249.5296 0002352 190.4400 169.6731 14.26534918465566

Track FASAT B in real time with AllMySat

Download on the App Store